Regional Weather Roundup
Issued by NWS Cleveland, OH

Home | Current Version | Previous Version | Text Only | Print | Product List | Glossary Off
Versions: 1 2 3 4 5 6 7 8 9 10 11 12 13 14 15 16 17 18 19 20 21 22 23 24 25 26 27 28 29 30 31 32 33 34 35 36 37 38 39 40 41 42 43 44 45 46 47 48 49 50

000
ASUS41 KCLE 042210
RWRCLE
OHIO REGIONAL WEATHER ROUNDUP
NATIONAL WEATHER SERVICE WILMINGTON, OH
600 PM EDT SAT JUL 04 2015

NOTE: "FAIR" INDICATES FEW OR NO CLOUDS BELOW 12,000 FEET WITH NO
SIGNIFICANT WEATHER AND/OR OBSTRUCTIONS TO VISIBILITY.

OHZ001>008-015>018-024>027-034-035-043-044-042300-
   NORTHWEST OHIO

CITY           SKY/WX    TMP DP  RH WIND       PRES   REMARKS
DEFIANCE       SUNNY     80  56  43 CALM      30.00S
FINDLAY        SUNNY     79  55  43 N3        30.00S
TOLEDO EXPRESS SUNNY     78  52  40 VRB3      30.00S
TOLEDO EXEC    SUNNY     79  49  34 NW3       30.01S
LIMA           MOSUNNY   76  57  51 N7        30.02R
$$

OHZ009>014-019>023-028>033-038-089-042300-
   NORTHEAST OHIO

CITY           SKY/WX    TMP DP  RH WIND       PRES   REMARKS
CLE-HOPKINS    SUNNY     73  49  42 N6        30.04S
CLE-LAKEFRONT  SUNNY     73  53  49 NW3       30.02R
CUY CO. ARPT   SUNNY     75  52  43 N7        30.03S
LORAIN-ELYRIA  SUNNY     74  50  42 NE3       30.03S
ASHTABULA      SUNNY     72  51  47 NW5       30.02S
AKRON-CANTON   MOSUNNY   79  54  41 NW8       30.01R
WOOSTER        SUNNY     76  55  48 N6        30.03R
MANSFIELD      PTSUNNY   76  57  51 N7        30.03R
YOUNGSTOWN     MOSUNNY   76  53  44 N10       30.01R
$$

OHZ042-051>053-060>062-070>072-077>081-042300-
  SOUTHWEST OHIO

CITY           SKY/WX    TMP DP  RH WIND       PRES   REMARKS
CINC-COVINGTON MOSUNNY   80  62  54 N7        29.99F
CINC-LUNKEN    MOSUNNY   81  63  54 NE5       29.98F
HAMILTON       MOSUNNY   81  62  52 N6        30.00F
DAYTON         MOSUNNY   80  60  50 CALM      30.02F
WRIGHT-PAT AFB SUNNY     78  56  45 N7        30.00F
DAYTON GENERAL SUNNY     79  57  46 N8        30.00F
WILMINGTON     SUNNY     79  54  41 N8        30.00F
$$

OHZ036-037-039>041-045>050-054>059-063>069-073>076-082>088-042300-
  CENTRAL AND SOUTHEAST OHIO

CITY           SKY/WX    TMP DP  RH WIND       PRES   REMARKS
COLUMBUS       MOSUNNY   78  55  44 N7        30.00S
OSU AIRPORT    SUNNY     77  57  50 N7        30.01S
BOLTON FIELD   SUNNY     77  57  50 W5        30.02S
RICKENBACK AFB SUNNY     78  53  42 W7        30.00S
NEWARK         SUNNY     79  57  46 NW6       30.00S
MARION         MOSUNNY   77  54  44 NW7       30.03R
LANCASTER      SUNNY     79  57  46 CALM      30.01S
ZANESVILLE     PTSUNNY   77  59  53 NW7       30.00S
NEW PHILLY     SUNNY     77  58  51 NW6       30.01R
$$



USA.gov is the U.S. government's official web portal to all federal, state and local government web resources and services.